Weather History for Santiago de Compostela, Spain

Change the Weather History Date:

Wednesday, June 12, 2013

  Actual Average Record
Temperature  
Mean Temperature 62 °F -  
Max Temperature 66 °F 71 °F 91 °F (2014)
Min Temperature 57 °F 52 °F 42 °F (1998)
Degree Days  
Heating Degree Days 4    
Growing Degree Days 12 (Base 50)    
Moisture  
Dew Point 57 °F    
Average Humidity 91    
Maximum Humidity 100    
Minimum Humidity 68    
Precipitation  
Precipitation 0.00 in - - ()
Sea Level Pressure  
Sea Level Pressure 30.18 in    
Wind  
Wind Speed 8 mph ()    
Max Wind Speed 14 mph    
Max Gust Speed 26 mph    
Visibility 5.6 miles    
Events      
Averages and records for this station are not official NWS values.
T = Trace of Precipitation, MM = Missing Value Source: Averaged Metar Reports

Daily Weather History Graph

Daily Weather History Graph

Search for Another Location

Airport:

Trip Planner

Search our weather history database for the weather conditions in past years. The results will help you decide how hot, cold, wet, or windy it might be!

Date:

Astronomy

Jun. 12, 2013 Rise Set
Actual Time 6:54 AM CEST 10:12 PM CEST
Civil Twilight 6:19 AM CEST 10:47 PM CEST
Nautical Twilight 5:33 AM CEST 11:33 PM CEST
Astronomical Twilight 4:38 AM CEST 12:29 AM CEST
Moon 10:24 AM CEST (6/12) 12:03 AM CEST (6/12)
Length of Visible Light 16h 28m
Length of Day
15h 18m
Waxing Crescent, 12% of the Moon is Illuminated
Jun 12
Waxing Crescent
Jun 16
First Quarter
Jun 23
Full
Jun 30
Last Quarter
Jul 8
New

Hourly Weather History & Observations

Time (CEST) Temp. Dew Point Humidity Pressure Visibility Wind Dir Wind Speed Gust Speed Precip Events Conditions
12:00 AM 59.0 °F 59.0 °F 100% 30.18 in 5.0 mi SSW 8.1 mph - N/A   Mostly Cloudy
12:30 AM 57.2 °F 57.2 °F 100% 30.18 in 5.0 mi SSW 5.8 mph - N/A   Mostly Cloudy
1:00 AM 59.0 °F 59.0 °F 100% 30.18 in 5.6 mi SSW 8.1 mph - N/A   Mostly Cloudy
1:30 AM 59.0 °F 59.0 °F 100% 30.18 in 5.6 mi SSW 6.9 mph - N/A   Mostly Cloudy
2:00 AM 59.0 °F 59.0 °F 100% 30.18 in 5.0 mi SW 6.9 mph - N/A   Mostly Cloudy
2:30 AM 57.2 °F 57.2 °F 100% 30.18 in 5.6 mi SSW 5.8 mph - N/A   Mostly Cloudy
3:00 AM 57.2 °F 57.2 °F 100% 30.18 in 4.3 mi SW 5.8 mph - N/A   Mostly Cloudy
3:30 AM 57.2 °F 57.2 °F 100% 30.18 in 5.0 mi SW 9.2 mph - N/A   Mostly Cloudy
4:00 AM 57.2 °F 57.2 °F 100% 30.15 in 4.3 mi SW 5.8 mph - N/A   Mostly Cloudy
4:30 AM 57.2 °F 57.2 °F 100% 30.15 in 3.1 mi SSW 10.4 mph - N/A   Mostly Cloudy
5:00 AM 57.2 °F 57.2 °F 100% 30.15 in 3.1 mi SW 9.2 mph - N/A   Mostly Cloudy
5:30 AM 57.2 °F 57.2 °F 100% 30.15 in 3.1 mi SSW 10.4 mph - N/A   Mostly Cloudy
6:00 AM 57.2 °F 57.2 °F 100% 30.15 in 5.6 mi SW 9.2 mph - N/A   Mostly Cloudy
6:30 AM 57.2 °F 57.2 °F 100% 30.15 in 4.3 mi SW 10.4 mph - N/A   Mostly Cloudy
7:00 AM 57.2 °F 57.2 °F 100% 30.15 in 4.3 mi SSW 11.5 mph - N/A   Mostly Cloudy
7:30 AM 57.2 °F 57.2 °F 100% 30.15 in 3.7 mi SSW 9.2 mph - N/A   Mostly Cloudy
8:00 AM 57.2 °F 57.2 °F 100% 30.15 in 3.7 mi SSW 12.7 mph - N/A   Mostly Cloudy
8:30 AM 57.2 °F 57.2 °F 100% 30.15 in 5.6 mi SSW 10.4 mph - N/A   Mostly Cloudy
9:00 AM 57.2 °F 57.2 °F 100% 30.18 in 6.2 mi SW 8.1 mph - N/A   Mostly Cloudy
9:30 AM 57.2 °F 57.2 °F 100% 30.18 in 6.2 mi SW 10.4 mph - N/A   Mostly Cloudy
10:00 AM 57.2 °F 57.2 °F 100% 30.18 in 6.2 mi SW 11.5 mph - N/A   Mostly Cloudy
10:30 AM 57.2 °F 57.2 °F 100% 30.18 in 6.2 mi SSW 11.5 mph - N/A   Mostly Cloudy
11:00 AM 59.0 °F 57.2 °F 94% 30.18 in 6.2 mi SSW 12.7 mph - N/A   Mostly Cloudy
11:30 AM 59.0 °F 55.4 °F 88% 30.18 in 6.2 mi SW 12.7 mph - N/A   Mostly Cloudy
12:00 PM 59.0 °F 57.2 °F 94% 30.18 in 6.2 mi SW 10.4 mph - N/A   Mostly Cloudy
12:30 PM 59.0 °F 57.2 °F 94% 30.21 in 6.2 mi WSW 9.2 mph - N/A   Mostly Cloudy
1:00 PM 59.0 °F 57.2 °F 94% 30.21 in 6.2 mi SW 10.4 mph - N/A   Mostly Cloudy
1:30 PM 60.8 °F 55.4 °F 82% 30.21 in 6.2 mi SW 12.7 mph 26.5 mph N/A   Mostly Cloudy
2:00 PM 60.8 °F 57.2 °F 88% 30.21 in 6.2 mi SW 13.8 mph - N/A   Mostly Cloudy
2:30 PM 60.8 °F 55.4 °F 82% 30.21 in 6.2 mi SW 12.7 mph - N/A   Mostly Cloudy
3:00 PM 62.6 °F 57.2 °F 82% 30.21 in 6.2 mi SW 10.4 mph - N/A   Mostly Cloudy
3:30 PM 64.4 °F 57.2 °F 77% 30.21 in 6.2 mi SSW 11.5 mph - N/A   Mostly Cloudy
4:00 PM 64.4 °F 57.2 °F 77% 30.21 in 6.2 mi SSW 10.4 mph - N/A   Mostly Cloudy
4:30 PM 66.2 °F 57.2 °F 73% 30.18 in 6.2 mi SW 12.7 mph - N/A   Mostly Cloudy
5:00 PM 66.2 °F 57.2 °F 73% 30.18 in 6.2 mi WSW 9.2 mph - N/A   Mostly Cloudy
5:30 PM 66.2 °F 55.4 °F 68% 30.18 in 6.2 mi WSW 10.4 mph - N/A   Mostly Cloudy
6:00 PM 66.2 °F 57.2 °F 73% 30.18 in 6.2 mi WSW 11.5 mph - N/A   Mostly Cloudy
6:30 PM 64.4 °F 57.2 °F 77% 30.18 in 6.2 mi WSW 12.7 mph 25.3 mph N/A   Mostly Cloudy
7:00 PM 64.4 °F 55.4 °F 73% 30.18 in 6.2 mi SW 12.7 mph - N/A   Mostly Cloudy
7:30 PM 62.6 °F 55.4 °F 77% 30.18 in 6.2 mi SW 10.4 mph - N/A   Mostly Cloudy
8:00 PM 62.6 °F 57.2 °F 82% 30.18 in 6.2 mi WSW 8.1 mph - N/A   Mostly Cloudy
8:30 PM 62.6 °F 57.2 °F 82% 30.18 in 6.2 mi SW 11.5 mph - N/A   Scattered Clouds
9:00 PM 60.8 °F 57.2 °F 88% 30.18 in 6.2 mi SW 9.2 mph - N/A   Scattered Clouds
9:30 PM 60.8 °F 57.2 °F 88% 30.18 in 6.2 mi West 3.5 mph - N/A   Scattered Clouds
10:00 PM 59.0 °F 55.4 °F 88% 30.18 in 6.2 mi SW 5.8 mph - N/A   Mostly Cloudy
10:30 PM 59.0 °F 57.2 °F 94% 30.18 in 6.2 mi South 4.6 mph - N/A   Mostly Cloudy
11:00 PM 59.0 °F 57.2 °F 94% 30.21 in 6.2 mi Variable 1.2 mph - N/A   Mostly Cloudy
11:30 PM 59.0 °F 57.2 °F 94% 30.21 in 6.2 mi Variable 2.3 mph - N/A   Mostly Cloudy